Home > Weather > Costa Mesa > Past weeks

Flag for U.S.A. Weather for the Past 2 Weeks in Costa Mesa, California, U.S.A.

Now
76 °F

Scattered clouds.


Feels Like: 78 °F
Forecast: 53 / 79 °F
Wind: 6 mph from Southwest

Location: John Wayne Airport-Orange County Airport

Current Time: Feb 12, 2016 at 3:22:20 PM

Latest Report: Feb 12, 2016 at 1:53 PM


Visibility: 6 mi

Pressure: 30.02 "Hg

Humidity: 36%

Dew point: 47 °F

Location of Costa MesaLocation

Historic Weather in Costa Mesa — Graph

°F

Costa Mesa Temperature Yesterday

Maximum temperature yesterday: 81 °F (at 2:53 PM)
Minimum temperature yesterday: 52 °F (at 5:53 AM)
Average temperature yesterday: 65 °F

High & Low Weather Summary for the Past Weeks

 TemperatureHumidityPressure
High88 °F (Feb 9, 12:53 PM)100% (Jan 31, 9:00 AM)30.36 "Hg (Jan 31, 9:00 AM)
Low37 °F (Feb 2, 4:53 AM)9% (Feb 7, 3:53 PM)29.64 "Hg (Jan 31, 1:53 PM)
Average61 °F46%30.11 "Hg
* Reported Jan 28 1:53 PM — Feb 12 1:53 PM, Costa Mesa, Weather by CustomWeather, © 2016

Note: Actual official high and low records may vary slightly from our data, if they occured in-between our weather recording intervals... More about our weather records

Advertising

Costa Mesa Weather History for the Previous 24 Hours

 ConditionsComfort  
Time TempWeatherWind HumidityBarometerVisibility
1:53 PM
Fri, Feb 12
76 °FScattered clouds.6 mph36%30.02 "Hg6 mi
12:53 PM76 °FScattered clouds.9 mph35%30.04 "Hg8 mi
11:53 AM76 °FScattered clouds.3 mph29%30.07 "Hg9 mi
10:53 AM73 °FScattered clouds.No wind33%30.10 "Hg9 mi
9:53 AM69 °FScattered clouds.3 mph35%30.11 "Hg10 mi
8:53 AM64 °FScattered clouds.No wind37%30.11 "Hg10 mi
7:53 AM58 °FPartly sunny.No wind44%30.10 "Hg10 mi
6:53 AM52 °FScattered clouds.No wind59%30.10 "Hg10 mi
5:53 AM52 °FClear.No wind59%30.08 "Hg10 mi
4:53 AM53 °FClear.No wind56%30.07 "Hg10 mi
3:53 AM54 °FClear.No wind55%30.07 "Hg10 mi
2:53 AM55 °FClear.No wind53%30.08 "Hg10 mi
1:53 AM56 °FClear.No wind51%30.09 "Hg10 mi
12:53 AM57 °FClear.No wind49%30.10 "Hg10 mi
11:53 PM
Thu, Feb 11
59 °FClear.No wind46%30.10 "Hg10 mi
10:53 PM60 °FClear.No wind42%30.10 "Hg10 mi
9:53 PM64 °FClear.No wind35%30.09 "Hg10 mi
8:53 PM65 °FClear.3 mph36%30.10 "Hg10 mi
7:53 PM65 °FPassing clouds.No wind34%30.09 "Hg10 mi
6:53 PM68 °FClear.3 mph28%30.09 "Hg10 mi
5:53 PM72 °FPassing clouds.No wind26%30.08 "Hg10 mi
4:53 PM77 °FPassing clouds.5 mph18%30.06 "Hg10 mi
3:53 PM79 °FPassing clouds.7 mph16%30.05 "Hg10 mi
Weather by CustomWeather, © 2016

See weather overviewHow to use our weather pages